DW8231 Weather Reports


Display with metric or nautical units.
time (UTC)temp
F
wind
direction
speed
MPH
gust
MPH
rain 1hr
in
rain 24hr
in
rain mn
in
humidity
%
barometer
mb
20260505191528 50 233 6.0 19.0 0.00 0.00 0.00 39 1010.2
20260505191027 50 232 9.0 19.0 0.00 0.00 0.00 38 1010.2
20260505190529 50 275 4.0 14.0 0.00 0.00 0.00 37 1010.3
20260505185531 49 281 6.0 14.0 0.00 0.00 0.00 39 1010.4
20260505185028 49 285 6.0 14.0 0.00 0.00 0.00 38 1010.5
20260505184528 50 287 7.0 15.0 0.00 0.00 0.00 37 1010.4
20260505184027 50 245 6.0 15.0 0.00 0.00 0.00 40 1010.3
20260505183525 49 244 4.0 15.0 0.00 0.00 0.00 40 1010.3
20260505183025 49 233 8.0 15.0 0.00 0.00 0.00 41 1010.5
20260505182525 48 239 4.0 14.0 0.00 0.00 0.00 40 1010.3
20260505182027 48 257 6.0 15.0 0.00 0.00 0.00 38 1010.4
20260505181525 49 242 8.0 18.0 0.00 0.00 0.00 38 1010.4
20260505181025 49 265 9.0 18.0 0.00 0.00 0.00 38 1010.3
20260505180524 49 254 6.0 16.0 0.00 0.00 0.00 38 1010.3
20260505175522 49 242 6.0 13.0 0.00 0.00 0.00 39 1010.4
20260505175022 48 319 4.0 12.0 0.00 0.00 0.00 38 1010.4
20260505174521 47 290 4.0 11.0 0.00 0.00 0.00 40 1010.5
20260505174021 47 269 6.0 11.0 0.00 0.00 0.00 39 1010.5
20260505173520 47 269 4.0 9.0 0.00 0.00 0.00 39 1010.5
20260505173036 47 286 4.0 9.0 0.00 0.00 0.00 38 1010.5
20260505172519 47 290 1.0 11.0 0.00 0.00 0.00 38 1010.5
20260505172020 46 277 5.0 12.0 0.00 0.00 0.00 38 1010.5
20260505171520 46 292 5.0 15.0 0.00 0.00 0.00 37 1010.6
20260505171021 47 306 9.0 15.0 0.00 0.00 0.00 37 1010.5
20260505170518 47 288 3.0 11.0 0.00 0.00 0.00 38 1010.5
20260505165520 46 285 6.0 15.0 0.00 0.00 0.00 39 1010.5
20260505165020 46 288 5.0 12.0 0.00 0.00 0.00 38 1010.6
20260505164542 46 294 5.0 14.0 0.00 0.00 0.00 36 1010.5
20260505164020 47 296 5.0 18.0 0.00 0.00 0.00 35 1010.4
20260505163520 48 292 8.0 21.0 0.00 0.00 0.00 36 1010.5
20260505163019 47 244 8.0 21.0 0.00 0.00 0.00 35 1010.4
20260505162518 47 277 7.0 15.0 0.00 0.00 0.00 35 1010.5
20260505162018 46 296 7.0 15.0 0.00 0.00 0.00 38 1010.5
20260505161517 46 271 5.0 12.0 0.00 0.00 0.00 38 1010.4
20260505161017 46 285 5.0 12.0 0.00 0.00 0.00 37 1010.4
20260505160517 47 298 5.0 12.0 0.00 0.00 0.00 35 1010.4
20260505153012 46 286 5.0 15.0 0.00 0.00 0.00 39 1010.3
20260505152511 46 295 4.0 15.0 0.00 0.00 0.00 41 1010.3
20260505152007 46 257 4.0 12.0 0.00 0.00 0.00 42 1010.1
20260505151507 45 288 5.0 10.0 0.00 0.00 0.00 40 1010.3
20260505151006 45 294 4.0 11.0 0.00 0.00 0.00 41 1010.2
20260505150505 45 261 5.0 11.0 0.00 0.00 0.00 41 1010.2
20260505140557 43 287 2.0 12.0 0.00 0.00 0.00 46 1010.0
20260505140157 42 271 4.0 9.0 0.00 0.00 0.00 47 1009.8
20260505130143 40 292 2.0 15.0 0.00 0.00 0.00 51 1009.5
20260505124540 40 269 3.0 8.0 0.00 0.00 0.00 54 1009.2
20260505124039 40 286 3.0 7.0 0.00 0.00 0.00 53 1009.2
20260505123536 40 288 1.0 7.0 0.00 0.00 0.00 56 1009.1
20260505123035 40 288 2.0 8.0 0.00 0.00 0.00 56 1008.9
20260505122537 40 290 2.0 8.0 0.00 0.00 0.00 57 1008.8
20260505122034 39 292 1.0 10.0 0.00 0.00 0.00 59 1008.8
20260505121536 39 295 4.0 10.0 0.00 0.00 0.00 59 1008.8
20260505121030 39 271 2.0 9.0 0.00 0.00 0.00 60 1008.6
20260505120529 39 290 2.0 8.0 0.00 0.00 0.00 60 1008.6
20260505120129 38 293 3.0 11.0 0.00 0.00 0.00 60 1008.3
20260505115528 38 287 3.0 12.0 0.00 0.00 0.00 60 1008.2
20260505115027 38 291 2.0 12.0 0.00 0.00 0.00 61 1008.2
20260505114533 38 292 2.0 8.0 0.00 0.00 0.00 61 1008.2
20260505114024 38 288 2.0 8.0 0.00 0.00 0.00 61 1008.1
20260505113523 37 296 2.0 8.0 0.00 0.00 0.00 62 1007.9
20260505113023 37 286 2.0 8.0 0.00 0.00 0.00 62 1007.9
20260505112523 37 288 1.0 8.0 0.00 0.00 0.00 63 1007.8
20260505112022 37 294 2.0 9.0 0.00 0.00 0.00 63 1007.7
20260505111524 37 295 2.0 9.0 0.00 0.00 0.00 63 1007.7
20260505111021 37 286 2.0 8.0 0.00 0.00 0.00 64 1007.6
20260505110521 37 286 1.0 8.0 0.00 0.00 0.00 64 1007.5
20260505110120 37 286 2.0 5.0 0.00 0.00 0.00 64 1007.5
20260505102014 39 298 2.0 7.0 0.00 0.00 0.00 63 1007.2
20260505101513 39 288 2.0 7.0 0.00 0.00 0.00 63 1007.2
20260505101013 39 289 3.0 5.0 0.00 0.00 0.00 62 1007.1
20260505100512 39 290 2.0 9.0 0.00 0.00 0.00 62 1007.2
20260505100112 39 288 2.0 11.0 0.00 0.00 0.00 62 1007.3
20260505095512 39 288 2.0 11.0 0.00 0.00 0.00 61 1007.3
20260505095010 39 290 3.0 11.0 0.00 0.00 0.00 61 1007.2
20260505094510 39 288 2.0 5.0 0.00 0.00 0.00 61 1007.1
20260505094014 40 288 2.0 5.0 0.00 0.00 0.00 61 1007.0
20260505093509 40 287 2.0 4.0 0.00 0.00 0.00 60 1007.0
20260505093009 40 288 2.0 4.0 0.00 0.00 0.00 60 1007.0
20260505092509 40 289 2.0 5.0 0.00 0.00 0.00 59 1006.8
20260505092008 40 290 2.0 8.0 0.00 0.00 0.00 59 1006.7
20260505091507 40 291 3.0 9.0 0.00 0.00 0.00 59 1006.6
20260505091005 41 304 3.0 13.0 0.00 0.00 0.00 58 1006.6
20260505090505 41 312 5.0 13.0 0.00 0.00 0.00 57 1006.7
20260505085507 41 293 4.0 14.0 0.00 0.00 0.00 56 1006.4
20260505085004 41 299 4.0 14.0 0.00 0.00 0.00 56 1006.4
20260505084502 41 288 4.0 13.0 0.00 0.00 0.00 56 1006.4
20260505084104 41 290 3.0 10.0 0.00 0.00 0.00 55 1006.2
20260505083559 41 294 3.0 11.0 0.00 0.00 0.00 55 1006.1
20260505083100 41 299 3.0 11.0 0.00 0.00 0.00 54 1006.1
20260505082557 42 291 4.0 11.0 0.00 0.00 0.00 54 1006.1
20260505082057 42 292 4.0 11.0 0.00 0.00 0.00 53 1006.0
20260505081602 42 290 5.0 11.0 0.00 0.00 0.00 54 1005.8
20260505081055 42 288 4.0 11.0 0.00 0.00 0.00 54 1005.9
20260505080554 42 298 3.0 9.0 0.00 0.00 0.00 54 1005.6
20260505080053 42 291 3.0 11.0 0.00 0.00 0.00 54 1005.6
20260505075555 42 292 3.0 11.0 0.00 0.00 0.00 54 1005.6
20260505075052 42 288 3.0 10.0 0.00 0.00 0.00 54 1005.6
20260505074608 42 295 3.0 11.0 0.00 0.00 0.00 55 1005.6
20260505074051 42 272 3.0 11.0 0.00 0.00 0.00 54 1005.5
20260505073552 42 275 2.0 9.0 0.00 0.00 0.00 55 1005.4
20260505073054 42 270 2.0 8.0 0.00 0.00 0.00 55 1005.5
20260505072551 42 281 2.0 5.0 0.00 0.00 0.00 55 1005.6
20260505072050 42 282 1.0 5.0 0.00 0.00 0.00 54 1005.5
20260505071550 43 282 2.0 13.0 0.00 0.00 0.00 54 1005.6
20260505071050 43 281 3.0 13.0 0.00 0.00 0.00 53 1005.6
20260505070550 43 293 5.0 12.0 0.00 0.00 0.00 53 1005.6
20260505070049 43 285 3.0 11.0 0.00 0.00 0.00 53 1005.6
20260505065548 43 294 4.0 11.0 0.00 0.00 0.00 54 1005.7
20260505065048 43 280 4.0 11.0 0.00 0.00 0.00 54 1005.6
20260505064549 42 288 4.0 10.0 0.00 0.00 0.00 56 1005.6
20260505064048 42 293 4.0 10.0 0.00 0.00 0.00 57 1005.7
20260505063547 42 271 3.0 9.0 0.00 0.00 0.00 58 1005.8
20260505063052 42 270 2.0 6.0 0.00 0.00 0.00 59 1005.8
20260505062546 42 270 2.0 6.0 0.00 0.00 0.00 58 1005.7
20260505062044 42 271 2.0 6.0 0.00 0.00 0.00 58 1005.7
20260505061614 42 269 2.0 6.0 0.00 0.00 0.00 58 1005.8
20260505061044 42 269 1.0 7.0 0.00 0.00 0.00 58 1005.7
20260505060545 43 270 3.0 7.0 0.00 0.00 0.00 57 1005.7
20260505060046 43 272 2.0 8.0 0.00 0.00 0.00 56 1005.7
20260505055544 43 272 2.0 8.0 0.00 0.00 0.00 56 1005.6
20260505055047 43 271 3.0 11.0 0.00 0.00 0.00 56 1005.7
20260505054555 43 275 4.0 11.0 0.00 0.00 0.00 56 1005.7
20260505054044 43 265 2.0 8.0 0.00 0.00 0.00 57 1005.5
20260505053541 43 260 3.0 8.0 0.00 0.00 0.00 57 1005.5
20260505053041 43 257 1.0 7.0 0.00 0.00 0.00 57 1005.5
20260505052539 43 269 2.0 6.0 0.00 0.00 0.00 56 1005.5
20260505052039 44 269 1.0 7.0 0.00 0.00 0.00 55 1005.4
20260505051538 44 269 2.0 8.0 0.00 0.00 0.00 55 1005.4
20260505051037 44 269 2.0 8.0 0.00 0.00 0.00 55 1005.4
20260505050539 44 273 3.0 8.0 0.00 0.00 0.00 54 1005.2
20260505041532 45 259 2.0 8.0 0.00 0.00 0.00 54 1005.1
20260505041033 45 260 3.0 7.0 0.00 0.00 0.00 54 1005.1
20260505040532 45 258 2.0 7.0 0.00 0.00 0.00 53 1005.0
20260505040035 45 282 3.0 9.0 0.00 0.00 0.00 51 1005.0
20260505035531 45 284 2.0 7.0 0.00 0.00 0.00 51 1005.0
20260505035031 45 244 2.0 8.0 0.00 0.00 0.00 50 1005.0
20260505034532 45 275 1.0 6.0 0.00 0.00 0.00 49 1005.0
20260505034034 45 277 2.0 4.0 0.00 0.00 0.00 49 1005.0
20260505033533 45 277 1.0 4.0 0.00 0.00 0.00 48 1005.1
20260505033040 45 277 2.0 5.0 0.00 0.00 0.00 48 1005.0
20260505032530 45 279 1.0 7.0 0.00 0.00 0.00 48 1005.1
20260505032031 45 279 2.0 7.0 0.00 0.00 0.00 47 1005.1
20260505031529 46 279 2.0 7.0 0.00 0.00 0.00 47 1005.0
20260505031028 46 277 3.0 9.0 0.00 0.00 0.00 47 1005.0
20260505030527 46 277 3.0 9.0 0.00 0.00 0.00 46 1005.1
20260505030026 46 281 2.0 8.0 0.00 0.00 0.00 46 1004.9
20260505025530 46 283 2.0 7.0 0.00 0.00 0.00 46 1004.9
20260505025027 46 279 2.0 7.0 0.00 0.00 0.00 46 1004.8
20260505024548 46 286 2.0 7.0 0.00 0.00 0.00 45 1004.8
20260505024023 47 288 1.0 8.0 0.00 0.00 0.00 44 1004.7
20260505023522 47 288 3.0 11.0 0.00 0.00 0.00 44 1004.6
20260505023027 47 282 3.0 8.0 0.00 0.00 0.00 43 1004.6
20260505022522 47 275 3.0 11.0 0.00 0.00 0.00 43 1004.6
20260505022021 47 295 4.0 11.0 0.00 0.00 0.00 43 1004.5
20260505021538 47 294 3.0 11.0 0.00 0.00 0.00 43 1004.4
20260505021019 47 290 4.0 13.0 0.00 0.00 0.00 42 1004.3
20260505020518 48 273 6.0 13.0 0.00 0.00 0.00 42 1004.2
20260505020018 48 281 6.0 16.0 0.00 0.00 0.00 43 1004.0
20260505015521 48 277 6.0 16.0 0.00 0.00 0.00 43 1004.0
20260505015017 48 288 9.0 16.0 0.00 0.00 0.00 44 1003.9
20260505014521 48 299 9.0 16.0 0.00 0.00 0.00 44 1003.8
20260505014018 49 300 9.0 19.0 0.00 0.00 0.00 44 1003.8
20260505013513 49 298 8.0 19.0 0.00 0.00 0.00 44 1003.6
20260505013012 49 288 9.0 17.0 0.00 0.00 0.00 44 1003.5
20260505012514 49 278 8.0 17.0 0.00 0.00 0.00 44 1003.3
20260505012013 49 283 7.0 17.0 0.00 0.00 0.00 44 1003.2
20260505011511 50 286 8.0 24.0 0.00 0.00 0.00 43 1003.2
20260505011008 50 292 8.0 24.0 0.00 0.00 0.00 43 1003.0
20260505010507 50 299 11.0 22.0 0.00 0.00 0.00 42 1002.9
20260505010004 51 297 8.0 18.0 0.00 0.00 0.00 42 1002.6
20260505005505 51 277 8.0 18.0 0.00 0.00 0.00 42 1002.6
20260505005004 51 267 8.0 16.0 0.00 0.00 0.00 42 1002.4
20260505004506 51 293 5.0 17.0 0.00 0.00 0.00 42 1002.4
20260505004001 51 300 8.0 17.0 0.00 0.00 0.00 42 1002.3
20260505003600 52 290 7.0 17.0 0.00 0.00 0.00 41 1002.3
20260505003059 52 281 8.0 17.0 0.00 0.00 0.00 41 1002.2
20260505002600 52 287 6.0 14.0 0.00 0.00 0.00 41 1002.2
20260505002058 52 300 6.0 19.0 0.00 0.00 0.00 41 1002.1
20260505001558 52 292 8.0 19.0 0.00 0.00 0.00 41 1002.0
20260505001057 52 268 6.0 18.0 0.00 0.00 0.00 41 1002.1
20260505000556 52 296 9.0 18.0 0.00 0.00 0.00 40 1001.9
20260505000058 52 279 9.0 20.0 0.00 0.00 0.00 40 1001.9
20260504235056 53 289 9.0 18.0 0.00 0.00 0.00 41 1001.8
20260504234555 53 281 9.0 18.0 0.00 0.00 0.00 42 1001.8
20260504234053 53 306 6.0 19.0 0.00 0.00 0.00 43 1001.7
20260504233552 53 299 10.0 19.0 0.00 0.00 0.00 42 1001.5
20260504233100 53 292 10.0 19.0 0.00 0.00 0.00 42 1001.5
20260504232552 53 289 9.0 19.0 0.00 0.00 0.00 41 1001.4
20260504232050 54 297 9.0 21.0 0.00 0.00 0.00 41 1001.3
20260504231547 54 286 9.0 21.0 0.00 0.00 0.00 42 1001.2
20260504231046 54 279 9.0 21.0 0.00 0.00 0.00 42 1001.2
20260504230547 55 306 10.0 21.0 0.00 0.00 0.00 41 1001.1
20260504230045 55 281 8.0 18.0 0.00 0.00 0.00 41 1001.1
20260504225043 55 285 9.0 22.0 0.00 0.00 0.00 40 1000.9
20260504224543 55 296 12.0 22.0 0.00 0.00 0.00 39 1000.8
20260504224045 55 281 11.0 20.0 0.00 0.00 0.00 40 1000.6
20260504223541 56 281 10.0 24.0 0.00 0.00 0.00 40 1000.6
20260504223043 56 292 11.0 24.0 0.00 0.00 0.00 39 1000.6
20260504222540 57 275 11.0 19.0 0.00 0.00 0.00 40 1000.4
20260504222037 57 279 8.0 21.0 0.00 0.00 0.00 41 1000.1
20260504221545 57 306 9.0 23.0 0.00 0.00 0.00 40 1000.1
20260504221036 57 267 12.0 19.0 0.00 0.00 0.00 38 999.9
20260504220536 57 296 9.0 21.0 0.00 0.00 0.00 39 999.8
20260504220042 57 277 10.0 29.0 0.00 0.00 0.00 38 999.8
20260504215033 58 311 8.0 23.0 0.00 0.00 0.00 39 999.7
20260504214533 58 299 12.0 28.0 0.00 0.00 0.00 37 999.4
20260504214032 58 286 11.0 28.0 0.00 0.00 0.00 37 999.4
20260504213531 58 279 11.0 23.0 0.00 0.00 0.00 37 999.3
20260504213031 58 288 8.0 20.0 0.00 0.00 0.00 39 999.3
20260504212531 58 281 10.0 26.0 0.00 0.00 0.00 38 999.4
20260504212030 59 317 10.0 22.0 0.00 0.00 0.00 37 999.3
20260504211529 59 205 11.0 24.0 0.00 0.00 0.00 38 999.1
20260504211030 59 288 9.0 20.0 0.00 0.00 0.00 38 999.2
20260504210528 59 276 9.0 21.0 0.00 0.00 0.00 38 999.1
20260504210029 60 275 11.0 20.0 0.00 0.00 0.00 36 999.1
20260504205030 60 292 10.0 21.0 0.00 0.00 0.00 38 999.0
20260504204539 60 290 11.0 21.0 0.00 0.00 0.00 40 999.0
20260504204028 60 271 8.0 18.0 0.00 0.00 0.00 39 998.9
20260504203528 60 279 9.0 18.0 0.00 0.00 0.00 38 998.9
20260504203029 60 272 9.0 23.0 0.00 0.00 0.00 40 998.8
20260504202528 60 266 9.0 18.0 0.00 0.00 0.00 39 998.8
20260504202027 60 309 9.0 25.0 0.00 0.00 0.00 39 998.7
20260504201527 60 309 15.0 26.0 0.00 0.00 0.00 38 998.6
20260504201027 61 292 10.0 24.0 0.00 0.00 0.00 37 998.7
20260504200528 61 280 11.0 26.0 0.00 0.00 0.00 36 998.7
20260504200026 62 273 10.0 26.0 0.00 0.00 0.00 38 998.5
20260504195025 62 267 10.0 17.0 0.00 0.00 0.00 36 998.5
20260504194526 62 242 8.0 21.0 0.00 0.00 0.00 36 998.4
20260504194024 61 259 8.0 22.0 0.00 0.00 0.00 36 998.3
20260504193525 61 259 13.0 22.0 0.00 0.00 0.00 35 998.4
20260504193024 61 225 10.0 19.0 0.00 0.00 0.00 35 998.3
20260504192524 62 279 9.0 25.0 0.00 0.00 0.00 34 998.2
20260504192023 62 283 12.0 25.0 0.00 0.00 0.00 34 998.3